QPF
0.00 0.00 0.00 0.00 0.00 0.00 0.00 0.00 0.00 0.00 0.00 0.00 0.00 0.00 0.01 0.00 0.00 0.01 0.03 0.02 0.02 0.01 0.00 0.00 0.02 0.00 0.00 0.00 0.00 0.00 0.00 0.00 0.00 0.00 0.00 0.00 0.00 0.00
0.00 0.00 0.00 0.00 0.00 0.00 0.00 0.00 0.00 0.00 0.00 0.00 0.00 0.00 0.00 0.01 0.07 0.01 0.06 0.05 0.05 0.00 0.02 0.02 0.02 0.00 0.00 0.00 0.00 0.00 0.00 0.00 0.00 0.00 0.00 0.00 0.00 0.00
0.01 0.00 0.00 0.00 0.00 0.00 0.03 0.02 0.01 0.00 0.00 0.00 0.00 0.00 0.00 0.01 0.00 0.00 0.03 0.01 0.00 0.02 0.02 0.01 0.00 0.00 0.00 0.00 0.00 0.00 0.00 0.00 0.00 0.00 0.00 0.00 0.00 0.00
0.05 0.02 0.00 0.00 0.00 0.00 0.01 0.01 0.00 0.00 0.00 0.00 0.00 0.00 0.00 0.00 0.00 0.00 0.00 0.00 0.00 0.02 0.00 0.00 0.00 0.00 0.00 0.00 0.00 0.00 0.00 0.00 0.00 0.00 0.00 0.00 0.00 0.00
0.03 0.01 0.00 0.00 0.00 0.00 0.00 0.00 0.01 0.05 0.00 0.00 0.00 0.00 0.00 0.00 0.00 0.01 0.01 0.00 0.01 0.05 0.00 0.00 0.00 0.00 0.00 0.00 0.00 0.00 0.00 0.00 0.00 0.00 0.00 0.00 0.00 0.00
0.03 0.04 0.01 0.01 0.00 0.00 0.00 0.00 0.00 0.01 0.01 0.00 0.00 0.01 0.00 0.00 0.01 0.04 0.04 0.02 0.04 0.02 0.00 0.00 0.00 0.00 0.00 0.00 0.00 0.00 0.00 0.00 0.00 0.00 0.00 0.00 0.00 0.00
0.00 0.00 0.00 0.00 0.01 0.05 0.04 0.01 0.01 0.01 0.01 0.01 0.00 0.00 0.00 0.00 0.03 0.11 0.05 0.04 0.07 0.06 0.01 0.00 0.00 0.00 0.00 0.00 0.00 0.00 0.00 0.00 0.00 0.00 0.00 0.00 0.00 0.00
0.00 0.01 0.01 0.01 0.03 0.09 0.07 0.03 0.06 0.06 0.01 0.01 0.00 0.00 0.00 0.00 0.06 0.13 0.13 0.07 0.07 0.04 0.00 0.00 0.00 0.00 0.00 0.00 0.00 0.00 0.00 0.00 0.00 0.00 0.00 0.00 0.00 0.00
0.00 0.03 0.03 0.03 0.02 0.02 0.06 0.07 0.03 0.06 0.05 0.03 0.00 0.01 0.02 0.07 0.06 0.05 0.04 0.06 0.07 0.04 0.00 0.00 0.00 0.00 0.00 0.00 0.00 0.00 0.00 0.00 0.00 0.00 0.00 0.00 0.00 0.00
0.02 0.01 0.00 0.00 0.00 0.05 0.06 0.00 0.00 0.00 0.02 0.03 0.01 0.01 0.01 0.06 0.02 0.02 0.08 0.07 0.04 0.02 0.02 0.02 0.01 0.00 0.00 0.00 0.00 0.00 0.00 0.00 0.00 0.00 0.00 0.00 0.00 0.00
0.05 0.07 0.06 0.02 0.00 0.05 0.13 0.01 0.00 0.00 0.01 0.02 0.00 0.01 0.04 0.08 0.08 0.10 0.10 0.12 0.08 0.02 0.05 0.04 0.02 0.00 0.00 0.00 0.00 0.00 0.00 0.00 0.00 0.00 0.00 0.00 0.00 0.00
0.00 0.00 0.02 0.01 0.03 0.02 0.04 0.01 0.00 0.00 0.07 0.11 0.11 0.08 0.11 0.11 0.12 0.14 0.15 0.11 0.08 0.05 0.06 0.04 0.02 0.00 0.00 0.00 0.00 0.00 0.00 0.00 0.00 0.00 0.00 0.00 0.00 0.00
0.00 0.00 0.00 0.00 0.03 0.09 0.19 0.12 0.10 0.13 0.16 0.16 0.17 0.13 0.10 0.09 0.09 0.08 0.07 0.06 0.03 0.03 0.03 0.03 0.01 0.00 0.00 0.00 0.00 0.00 0.00 0.00 0.00 0.00 0.00 0.00 0.00 0.00
0.00 0.00 0.00 0.00 0.01 0.05 0.10 0.16 0.21 0.18 0.15 0.12 0.08 0.05 0.04 0.03 0.03 0.02 0.03 0.02 0.01 0.01 0.00 0.00 0.00 0.00 0.00 0.00 0.00 0.00 0.00 0.00 0.00 0.00 0.00 0.00 0.00 0.00
0.00 0.00 0.00 0.00 0.00 0.00 0.00 0.03 0.05 0.10 0.07 0.08 0.09 0.05 0.02 0.01 0.00 0.01 0.01 0.00 0.00 0.00 0.00 0.00 0.00 0.00 0.00 0.00 0.00 0.00 0.00 0.00 0.00 0.00 0.00 0.00 0.00 0.00
0.00 0.00 0.00 0.00 0.00 0.00 0.00 0.00 0.01 0.02 0.01 0.02 0.03 0.03 0.01 0.00 0.00 0.00 0.00 0.00 0.00 0.00 0.00 0.00 0.00 0.00 0.00 0.00 0.00 0.00 0.00 0.00 0.00 0.00 0.00 0.00 0.00 0.00
0.00 0.00 0.00 0.00 0.00 0.00 0.00 0.00 0.01 0.00 0.00 0.01 0.01 0.02 0.01 0.00 0.00 0.00 0.00 0.00 0.00 0.00 0.00 0.00 0.00 0.00 0.00 0.00 0.00 0.00 0.00 0.00 0.00 0.00 0.00 0.00 0.00 0.00
0.00 0.00 0.00 0.00 0.00 0.00 0.00 0.00 0.00 0.01 0.01 0.00 0.00 0.00 0.00 0.00 0.00 0.00 0.00 0.00 0.00 0.00 0.00 0.00 0.00 0.00 0.00 0.00 0.00 0.00 0.00 0.00 0.00 0.00 0.00 0.00 0.00 0.00
0.00 0.00 0.00 0.00 0.00 0.00 0.00 0.00 0.00 0.01 0.00 0.00 0.00 0.00 0.00 0.00 0.00 0.00 0.00 0.00 0.00 0.00 0.00 0.00 0.00 0.00 0.00 0.00 0.00 0.00 0.00 0.00 0.00 0.00 0.00 0.00 0.00 0.00
0.00 0.00 0.00 0.01 0.02 0.03 0.03 0.01 0.00 0.00 0.00 0.00 0.00 0.00 0.00 0.00 0.00 0.00 0.00 0.00 0.00 0.00 0.00 0.00 0.00 0.00 0.00 0.00 0.00 0.00 0.00 0.00 0.00 0.00 0.00 0.00 0.00 0.00
0.00 0.00 0.00 0.01 0.01 0.02 0.02 0.01 0.00 0.01 0.00 0.00 0.00 0.00 0.00 0.00 0.00 0.00 0.00 0.00 0.00 0.00 0.00 0.00 0.00 0.00 0.00 0.00 0.00 0.00 0.00 0.00 0.00 0.00 0.00 0.00 0.00 0.00
0.00 0.00 0.00 0.00 0.00 0.00 0.00 0.00 0.01 0.00 0.00 0.00 0.00 0.00 0.00 0.00 0.00 0.00 0.00 0.00 0.00 0.00 0.00 0.00 0.00 0.00 0.00 0.00 0.00 0.00 0.00 0.00 0.00 0.00 0.00 0.00 0.00 0.00
0.00 0.00 0.00 0.00 0.00 0.00 0.00 0.00 0.00 0.00 0.00 0.00 0.00 0.00 0.00 0.00 0.00 0.00 0.00 0.00 0.00 0.00 0.00 0.00 0.00 0.00 0.00 0.00 0.00 0.00 0.00 0.00 0.00 0.00 0.00 0.00 0.00 0.00
MSLP
1018.50 1018.65 1018.81 1018.60 1018.75 1018.66 1018.63 1018.69 1018.67 1018.61 1018.20 1017.52 1017.41 1017.12 1017.19 1017.22 1017.38 1017.61 1017.74 1017.97 1018.01 1018.25 1018.42 1018.69 1018.95 1019.21 1019.34 1019.51 1019.70 1019.82 1019.91 1019.94 1019.95 1019.91 1019.79 1019.63 1019.44 1019.25
1018.05 1018.16 1018.22 1018.22 1018.27 1018.34 1018.23 1018.33 1018.51 1018.50 1018.32 1017.74 1017.23 1017.21 1017.18 1017.16 1017.27 1017.46 1017.79 1018.04 1018.36 1018.47 1018.74 1018.87 1019.16 1019.46 1019.62 1019.85 1020.02 1020.14 1020.18 1020.20 1020.20 1020.17 1020.10 1020.00 1019.87 1019.75
1017.63 1017.64 1017.65 1017.77 1017.88 1017.96 1018.01 1017.95 1017.99 1018.25 1018.21 1017.74 1017.59 1017.10 1017.20 1017.33 1017.31 1017.54 1017.81 1018.05 1018.43 1018.76 1019.10 1019.21 1019.43 1019.68 1019.92 1020.13 1020.21 1020.34 1020.42 1020.49 1020.56 1020.60 1020.58 1020.53 1020.43 1020.29
1016.75 1017.14 1017.16 1017.23 1017.38 1017.54 1017.71 1017.58 1017.49 1017.56 1017.73 1017.52 1017.36 1017.05 1017.05 1017.20 1017.41 1017.77 1018.03 1018.36 1018.60 1018.89 1019.09 1019.53 1019.68 1019.92 1020.19 1020.45 1020.57 1020.68 1020.87 1020.97 1020.95 1021.05 1021.14 1021.12 1021.09 1021.04
1016.01 1016.13 1016.23 1016.59 1016.73 1016.89 1017.13 1017.21 1017.15 1017.07 1017.25 1017.27 1017.03 1016.91 1016.89 1017.11 1017.53 1017.99 1018.42 1018.72 1019.06 1019.36 1019.50 1019.73 1019.98 1020.22 1020.49 1020.78 1020.97 1021.20 1021.38 1021.48 1021.54 1021.62 1021.70 1021.66 1021.65 1021.60
1015.21 1015.41 1015.51 1015.71 1015.82 1015.93 1016.26 1016.41 1016.54 1016.58 1016.83 1016.96 1016.92 1016.83 1016.81 1016.98 1017.24 1017.81 1018.56 1018.93 1019.23 1019.33 1019.62 1019.91 1020.26 1020.58 1020.87 1021.15 1021.28 1021.43 1021.58 1021.78 1021.80 1021.98 1022.17 1022.20 1022.24 1022.28
1014.52 1014.53 1014.61 1014.77 1014.87 1015.03 1015.39 1015.49 1015.80 1015.93 1016.19 1016.34 1016.47 1016.53 1016.54 1016.77 1016.84 1017.28 1018.00 1018.63 1019.25 1019.58 1019.71 1019.98 1020.29 1020.69 1021.12 1021.33 1021.49 1021.60 1021.95 1022.05 1022.33 1022.37 1022.53 1022.65 1022.75 1022.80
1013.78 1013.50 1013.63 1013.82 1013.99 1014.10 1014.29 1014.51 1014.77 1015.01 1015.18 1015.41 1015.50 1015.66 1015.63 1015.83 1016.21 1016.69 1017.44 1018.23 1018.90 1019.03 1019.38 1019.98 1020.40 1020.94 1021.19 1021.39 1021.55 1021.72 1021.91 1022.13 1022.47 1022.70 1022.95 1023.09 1023.26 1023.35
1013.33 1012.77 1012.60 1012.77 1012.98 1013.11 1013.24 1013.53 1013.74 1013.84 1013.94 1014.15 1014.31 1014.37 1014.52 1014.69 1015.19 1015.86 1016.30 1016.73 1017.05 1017.87 1018.53 1019.85 1020.33 1020.77 1021.10 1021.51 1021.80 1021.99 1022.36 1022.33 1022.69 1023.10 1023.16 1023.34 1023.64 1023.76
1012.20 1011.90 1011.68 1011.57 1011.91 1012.29 1012.47 1012.63 1012.76 1012.75 1012.96 1013.20 1013.23 1013.23 1013.33 1013.69 1014.11 1014.35 1015.10 1016.27 1017.07 1017.65 1017.79 1019.13 1020.12 1020.71 1021.23 1021.53 1022.13 1022.17 1022.58 1022.80 1023.04 1023.16 1023.24 1023.30 1023.53 1023.74
1010.98 1010.76 1010.73 1010.38 1010.69 1011.23 1011.60 1011.98 1011.92 1011.81 1011.97 1012.28 1012.33 1012.45 1012.77 1013.20 1013.56 1014.44 1015.21 1015.77 1016.77 1017.24 1017.63 1018.32 1019.69 1020.78 1021.46 1021.94 1022.08 1022.25 1022.77 1022.97 1023.02 1023.29 1023.62 1023.61 1023.66 1023.79
1010.44 1009.94 1009.88 1009.90 1010.22 1010.59 1011.12 1011.05 1011.12 1011.07 1011.68 1012.07 1012.50 1012.85 1012.84 1013.22 1013.69 1013.60 1014.29 1014.73 1015.91 1017.12 1017.49 1018.16 1019.08 1020.00 1021.62 1022.03 1021.94 1022.39 1022.77 1023.00 1022.89 1023.10 1023.47 1023.60 1023.70 1023.61
1010.28 1009.51 1009.06 1009.10 1009.37 1009.81 1009.98 1010.12 1010.11 1010.40 1011.26 1011.81 1012.44 1013.00 1013.30 1013.50 1013.76 1013.69 1013.58 1014.11 1014.97 1016.27 1017.02 1017.54 1018.57 1019.46 1020.23 1021.69 1022.17 1022.48 1022.49 1022.82 1022.81 1022.94 1023.29 1023.46 1023.57 1023.66
1009.71 1009.31 1009.04 1008.88 1008.73 1008.87 1009.40 1009.37 1009.87 1010.36 1011.32 1011.75 1012.46 1012.95 1013.07 1012.93 1014.49 1014.76 1015.16 1014.19 1014.64 1015.18 1016.38 1017.00 1018.16 1018.77 1019.77 1020.61 1021.36 1022.12 1022.41 1022.67 1022.75 1022.77 1022.87 1023.19 1023.44 1023.76
1009.12 1008.76 1008.73 1008.75 1008.69 1008.44 1008.68 1008.94 1009.61 1009.97 1010.30 1011.61 1011.94 1013.42 1013.51 1014.38 1015.11 1015.40 1015.52 1016.37 1014.81 1016.42 1016.44 1016.73 1017.59 1018.86 1019.20 1019.80 1020.69 1021.40 1021.95 1022.52 1022.52 1022.56 1022.86 1022.98 1023.04 1023.13
1008.13 1007.80 1007.69 1007.95 1008.35 1008.15 1008.41 1008.87 1009.20 1009.60 1010.45 1011.53 1012.72 1013.68 1014.29 1014.84 1015.29 1015.92 1016.28 1016.67 1017.16 1017.09 1017.06 1017.52 1017.83 1018.17 1019.21 1019.73 1020.02 1021.12 1021.79 1022.29 1022.73 1022.85 1023.01 1023.12 1023.27 1023.18
1007.56 1006.69 1006.77 1007.17 1007.60 1007.68 1008.31 1008.74 1009.34 1009.93 1010.92 1011.94 1012.78 1013.60 1014.50 1015.15 1015.83 1016.27 1016.41 1016.84 1017.56 1018.12 1018.10 1018.31 1018.42 1018.33 1019.25 1019.82 1020.74 1021.30 1022.02 1022.40 1022.75 1022.99 1023.19 1023.37 1023.36 1023.30
1006.97 1006.48 1006.52 1006.86 1007.38 1007.86 1008.36 1009.17 1009.84 1010.55 1011.46 1012.11 1013.01 1013.79 1014.42 1015.33 1016.09 1016.70 1016.95 1017.21 1017.87 1018.16 1018.57 1018.52 1018.50 1019.08 1020.05 1020.72 1021.17 1021.55 1022.11 1022.45 1022.92 1023.27 1023.20 1023.19 1023.21 1023.20
1007.37 1007.30 1007.48 1007.66 1008.02 1008.33 1009.11 1009.73 1010.41 1011.31 1011.97 1012.75 1013.27 1014.23 1014.94 1015.75 1016.31 1016.79 1017.12 1017.49 1017.87 1018.26 1018.56 1018.37 1018.79 1019.46 1020.37 1021.25 1022.11 1022.19 1022.26 1022.61 1022.95 1023.38 1023.53 1023.39 1023.22 1022.92
1008.63 1008.64 1008.79 1009.03 1009.15 1009.39 1009.98 1010.38 1011.24 1012.13 1012.88 1013.55 1014.28 1014.91 1015.46 1015.98 1016.70 1017.18 1017.18 1017.48 1017.72 1018.16 1018.60 1019.05 1019.53 1019.95 1020.33 1020.86 1021.59 1022.37 1022.55 1022.65 1022.94 1023.20 1023.29 1023.34 1023.14 1023.23
1010.42 1010.31 1010.33 1010.48 1010.70 1010.82 1011.08 1011.53 1012.31 1012.95 1013.76 1014.47 1015.09 1015.44 1015.96 1016.21 1016.54 1016.93 1017.14 1017.37 1017.76 1018.28 1018.83 1019.53 1019.99 1020.17 1020.34 1020.73 1021.31 1022.21 1022.46 1023.01 1023.06 1023.08 1023.35 1023.10 1022.97 1022.85
1012.35 1012.05 1012.10 1011.91 1011.86 1012.43 1012.74 1013.02 1013.89 1014.34 1014.76 1015.19 1015.54 1015.76 1016.20 1016.45 1016.63 1016.74 1016.98 1017.33 1017.85 1018.36 1019.07 1019.88 1020.57 1020.52 1020.58 1020.96 1021.36 1022.06 1022.53 1022.80 1023.11 1023.20 1023.25 1023.23 1023.17 1022.84
1013.47 1013.46 1013.52 1013.49 1013.34 1013.61 1014.08 1014.59 1014.88 1015.22 1015.53 1015.86 1016.13 1016.30 1016.45 1016.41 1016.52 1016.70 1017.04 1017.42 1018.06 1018.73 1019.37 1019.97 1020.49 1020.70 1021.23 1021.55 1021.82 1022.31 1022.78 1022.92 1023.02 1022.93 1023.02 1023.20 1023.09 1022.80
Thickness
5760 5761 5760 5764 5763 5764 5765 5765 5762 5755 5759 5768 5768 5772 5771 5772 5769 5768 5765 5762 5761 5759 5756 5753 5749 5746 5744 5741 5739 5737 5735 5734 5732 5732 5732 5732 5732 5732
5759 5760 5761 5762 5763 5764 5765 5764 5762 5759 5755 5765 5769 5770 5769 5769 5768 5765 5763 5760 5757 5754 5750 5748 5745 5741 5738 5735 5734 5732 5730 5729 5728 5726 5726 5725 5724 5723
5758 5759 5760 5761 5761 5761 5762 5762 5761 5759 5755 5762 5765 5769 5767 5765 5763 5761 5759 5756 5753 5748 5744 5743 5740 5736 5733 5730 5729 5726 5725 5723 5720 5718 5716 5714 5713 5712
5757 5756 5757 5760 5760 5760 5758 5759 5760 5761 5758 5756 5761 5764 5764 5762 5760 5757 5753 5750 5748 5744 5741 5737 5734 5730 5727 5724 5721 5719 5716 5713 5711 5708 5705 5703 5701 5700
5760 5760 5759 5757 5757 5758 5758 5757 5758 5758 5757 5755 5756 5761 5761 5759 5754 5751 5747 5742 5739 5735 5733 5730 5726 5723 5719 5716 5713 5710 5706 5703 5700 5698 5695 5693 5690 5688
5758 5758 5759 5756 5756 5757 5756 5756 5756 5755 5754 5752 5752 5754 5755 5755 5752 5745 5739 5736 5732 5729 5725 5721 5717 5713 5710 5707 5704 5701 5697 5693 5691 5687 5684 5681 5677 5674
5754 5755 5756 5757 5758 5758 5755 5756 5754 5752 5750 5748 5747 5748 5749 5747 5746 5743 5736 5731 5725 5720 5716 5713 5709 5705 5700 5697 5694 5691 5686 5682 5677 5675 5671 5667 5662 5659
5750 5755 5756 5754 5754 5755 5755 5755 5754 5751 5749 5748 5747 5745 5747 5748 5744 5739 5732 5724 5717 5716 5711 5705 5700 5696 5692 5688 5684 5681 5676 5671 5666 5661 5657 5652 5647 5644
5743 5749 5753 5756 5754 5755 5753 5751 5751 5751 5753 5751 5749 5749 5747 5746 5743 5737 5734 5730 5726 5718 5710 5696 5692 5687 5683 5678 5674 5669 5663 5660 5654 5648 5645 5640 5634 5631
5745 5749 5751 5754 5754 5750 5748 5748 5749 5750 5750 5748 5750 5751 5751 5746 5743 5741 5734 5725 5717 5709 5706 5692 5684 5678 5672 5667 5660 5657 5651 5645 5642 5638 5634 5632 5627 5622
5747 5749 5748 5750 5754 5747 5744 5741 5744 5748 5747 5746 5747 5746 5744 5740 5737 5729 5721 5716 5705 5702 5696 5690 5676 5666 5660 5655 5651 5647 5639 5634 5632 5627 5620 5618 5616 5614
5740 5745 5746 5748 5746 5742 5736 5738 5739 5744 5737 5735 5733 5731 5730 5728 5725 5724 5717 5712 5702 5691 5688 5681 5671 5662 5649 5643 5641 5635 5629 5625 5623 5618 5612 5609 5608 5605
5731 5738 5743 5741 5739 5735 5733 5736 5739 5739 5730 5724 5721 5718 5717 5716 5713 5711 5710 5706 5699 5687 5681 5675 5664 5656 5649 5634 5629 5623 5619 5612 5610 5608 5607 5605 5603 5600
5723 5727 5729 5729 5729 5729 5727 5730 5727 5726 5717 5712 5707 5705 5703 5702 5692 5688 5687 5693 5690 5686 5675 5667 5656 5649 5640 5633 5626 5615 5609 5604 5601 5601 5602 5599 5596 5591
5716 5718 5717 5716 5717 5720 5721 5721 5717 5718 5713 5699 5698 5689 5687 5682 5679 5678 5674 5665 5679 5664 5663 5661 5652 5638 5633 5627 5618 5611 5605 5597 5598 5599 5597 5593 5590 5586
5710 5713 5713 5711 5709 5713 5711 5710 5711 5710 5702 5695 5684 5675 5673 5672 5669 5664 5660 5656 5651 5648 5647 5642 5638 5634 5624 5618 5615 5603 5596 5595 5592 5591 5588 5584 5580 5577
5697 5706 5706 5705 5704 5705 5701 5700 5698 5695 5689 5682 5676 5670 5664 5660 5656 5653 5651 5646 5638 5632 5629 5625 5623 5622 5614 5609 5598 5594 5591 5590 5586 5582 5578 5574 5570 5567
5691 5693 5694 5695 5693 5693 5691 5686 5683 5680 5675 5672 5665 5660 5656 5650 5644 5640 5637 5635 5627 5624 5620 5618 5615 5611 5600 5592 5589 5590 5586 5583 5578 5573 5571 5568 5563 5556
5675 5674 5672 5676 5678 5680 5676 5673 5669 5664 5661 5656 5652 5645 5642 5636 5633 5629 5626 5624 5618 5615 5612 5612 5606 5598 5588 5583 5580 5580 5579 5576 5570 5563 5558 5556 5551 5547
5659 5657 5658 5658 5660 5660 5658 5657 5654 5647 5643 5638 5634 5630 5627 5624 5620 5616 5616 5613 5610 5606 5599 5594 5590 5588 5588 5585 5581 5575 5571 5567 5562 5555 5551 5545 5540 5535
5641 5641 5641 5641 5640 5643 5639 5640 5635 5632 5627 5622 5618 5617 5614 5613 5611 5609 5608 5604 5600 5596 5592 5589 5586 5585 5584 5582 5579 5569 5564 5558 5551 5546 5539 5537 5532 5525
5624 5626 5625 5627 5628 5621 5620 5621 5614 5612 5610 5608 5608 5607 5605 5604 5602 5601 5600 5598 5596 5594 5590 5583 5577 5577 5578 5575 5572 5563 5554 5547 5541 5537 5531 5525 5520 5516
5613 5613 5612 5613 5615 5612 5608 5603 5602 5601 5598 5597 5596 5595 5593 5594 5595 5598 5597 5596 5592 5587 5583 5579 5575 5573 5567 5564 5559 5552 5542 5537 5532 5528 5522 5515 5510 5503